Weather History for Saskatoon, SK

Change the Weather History Date:

Thursday, January 10, 2013

  Actual Average Record
Temperature  
Mean Temperature 12 °F -  
Max Temperature 17 °F 12 °F 35 °F (2012)
Min Temperature 5 °F -7 °F -34 °F (1997)
Degree Days  
Heating Degree Days 54    
Moisture  
Dew Point 9 °F    
Average Humidity 83    
Maximum Humidity 93    
Minimum Humidity 78    
Precipitation  
Precipitation 0.00 in 0.02 in - ()
Sea Level Pressure  
Sea Level Pressure 29.99 in    
Wind  
Wind Speed 16 mph ()    
Max Wind Speed 25 mph    
Max Gust Speed 32 mph    
Visibility 15.0 miles    
Events Snow    
Averages and records for this station are not official NWS values.
T = Trace of Precipitation, MM = Missing Value Source: Averaged Metar Reports

Daily Weather History Graph

Daily Weather History Graph

Search for Another Location

Airport:

Trip Planner

Search our weather history database for the weather conditions in past years. The results will help you decide how hot, cold, wet, or windy it might be!

Date:

Astronomy

Jan. 10, 2013 Rise Set
Actual Time 9:12 AM CST 5:17 PM CST
Civil Twilight 8:32 AM CST 5:57 PM CST
Nautical Twilight 7:49 AM CST 6:40 PM CST
Astronomical Twilight 7:08 AM CST 7:20 PM CST
Moon 7:53 AM CST (1/10) 4:30 PM CST (1/10)
Length of Visible Light 9h 24m
Length of Day
8h 05m
Waning Crescent, 2% of the Moon is Illuminated
Jan 10
Waning Crescent
Jan 11
New
Jan 18
First Quarter
Jan 26
Full
Feb 3
Last Quarter

Hourly Weather History & Observations

Time (CST) Temp. Windchill Dew Point Humidity Pressure Visibility Wind Dir Wind Speed Gust Speed Precip Events Conditions
12:00 AM 15.8 °F 2.1 °F 12.2 °F 86% 29.68 in 15.0 mi North 12.7 mph - N/A   Overcast
1:00 AM 14.0 °F 0.5 °F 12.2 °F 93% 29.72 in 15.0 mi NNE 11.5 mph - N/A   Mostly Cloudy
2:00 AM 14.0 °F -0.8 °F 10.4 °F 86% 29.75 in 15.0 mi NNE 13.8 mph - N/A   Overcast
2:48 AM 14.0 °F -2.0 °F 10.4 °F 86% 29.77 in 15.0 mi NNE 16.1 mph - N/A   Overcast
3:00 AM 14.0 °F -2.5 °F 10.4 °F 86% 29.78 in 15.0 mi NNE 17.3 mph - N/A   Overcast
4:00 AM 15.8 °F 0.9 °F 12.2 °F 86% 29.80 in 15.0 mi NNE 15.0 mph 20.7 mph N/A   Overcast
7:00 AM 17.6 °F 3.7 °F 14.0 °F 86% 29.88 in 15.0 mi NNE 13.8 mph 20.7 mph N/A   Overcast
8:00 AM 17.6 °F 0.1 °F 14.0 °F 86% 29.90 in 15.0 mi NNE 23.0 mph - N/A   Overcast
10:00 AM 15.8 °F -2.7 °F 12.2 °F 86% 29.98 in 15.0 mi NNE 24.2 mph 31.1 mph N/A   Overcast
11:00 AM 15.8 °F -3.1 °F 10.4 °F 79% 30.01 in 15.0 mi NNE 25.3 mph - N/A Snow Low Drifting Snow
11:50 AM 14.0 °F -4.3 °F 10.4 °F 86% 30.04 in 15.0 mi NNE 21.9 mph 31.1 mph N/A Snow Light Snow
12:00 PM 14.0 °F -5.1 °F 10.4 °F 86% 30.05 in 15.0 mi NNE 24.2 mph - N/A Snow Light Snow
1:00 PM 15.8 °F -1.5 °F 10.4 °F 79% 30.04 in 15.0 mi NNE 20.7 mph 28.8 mph N/A Snow Light Snow
2:00 PM 14.0 °F -4.3 °F 10.4 °F 86% 30.05 in 15.0 mi NNE 21.9 mph 31.1 mph N/A Snow Light Snow
3:00 PM 14.0 °F -4.7 °F 8.6 °F 79% 30.07 in 15.0 mi NNE 23.0 mph 29.9 mph N/A Snow Light Snow
4:00 PM 14.0 °F -5.1 °F 8.6 °F 79% 30.09 in 15.0 mi NNE 24.2 mph 29.9 mph N/A Snow Light Snow
5:00 PM 14.0 °F -4.3 °F 8.6 °F 79% 30.12 in 15.0 mi NNE 21.9 mph 28.8 mph N/A Snow Light Snow
6:00 PM 14.0 °F -4.3 °F 8.6 °F 79% 30.14 in 15.0 mi NNE 21.9 mph - N/A Snow Light Snow
7:00 PM 12.2 °F -6.7 °F 6.8 °F 79% 30.16 in 15.0 mi NNE 21.9 mph 29.9 mph N/A Snow Light Snow
8:00 PM 10.4 °F -9.9 °F 6.8 °F 85% 30.15 in 15.0 mi NNE 24.2 mph 32.2 mph N/A Snow Low Drifting Snow
9:00 PM 8.6 °F -11.4 °F 5.0 °F 85% 30.18 in 15.0 mi NNE 21.9 mph - N/A Snow Low Drifting Snow
10:00 PM 6.8 °F -11.3 °F 1.4 °F 79% 30.22 in 15.0 mi NNE 16.1 mph 21.9 mph N/A Snow Low Drifting Snow
11:00 PM 5.0 °F -14.2 °F -0.4 °F 78% 30.25 in 15.0 mi NNE 17.3 mph 23.0 mph N/A Snow Ice Crystals